Location: Gajan
(43.0218°N, 1.1244°E)
Time: 16:29:22
(UTC+00:00)

Cosmos 2151 - Pass Details

Date: 22 April 2021
Orbit: 581 x 600 km, 82.5° (Epoch: 12 May)

Event Time Altitude Azimuth Distance (km) Brightness Sun altitude
Rises 19:35:37 0° 4° (N) 2,858 6.8 -9.1°
Reaches altitude 10° 19:38:13 10° 19° (NNE) 1,949 5.7 -9.6°
Maximum altitude 19:41:41 23° 73° (ENE) 1,282 4.3 -10.1°
Enters shadow 19:44:09 15° 116° (ESE) 1,648 4.6 -10.5°
